Location: Burla
(50.9568°N, 10.4983°E)
Time: 08:44:30
(UTC+00:00)

GEOS 3 Rocket - Pass Details

Date: 18 January 2026
Orbit: 768 x 845 km, 115.0° (Epoch: 14 February)

Event Time Altitude Azimuth Distance (km) Brightness Sun altitude
Rises 04:53:58 0° 136° (SE) 3,313 7.6 -21.1°
Reaches altitude 10° 04:56:13 10° 137° (SE) 2,396 6.7 -20.8°
Maximum altitude 05:01:27 86° 226° (SW) 833 3.6 -20.0°
Enters shadow 05:04:16 29° 315° (NW) 1,476 4.5 -19.5°
